[[{"header":{"parameterUnit":"m.s-1","parameterCategory":2,"la1":30.2991,"la2":30.254,"lo1":-89.0895,"lo2":-89.0444,"dy":0.0017,"dx":0.0017,"nx":28,"ny":28,"refTime":"2026-02-09T03:00:00:Z","depth":"0","parameterNumber":2,"parameterNumberName":"U-component_of_CURRENTS"},"data":[0,0,0,0,0,0,0,0,0,0,0,0,0,0,0,0,0,0,0,0,0,0,0,0,0,0,0,0,0,0,0,0,0,0,0,0,0,0,0,0,0,0,0,0,0,0,0,0,0,0,0,0,0,0,0,0,0,0,0.1785,0.1786,0,0.1944,0.1946,0.1948,0.1942,0.194,0.1937,0.1935,0.2012,0.2016,0.202,0,0,0,0,0,0,0,0,0,0,0,0,0,0.161,0.1613,0.1784,0.1786,0.1788,0.1944,0.1946,0.1949,0.1943,0.194,0.1936,0.1933,0.201,0.2015,0.2021,0,0,0,0,0,0,0,0,0,0,0,0,0,0.1723,0.1614,0.1784,0.1801,0.1804,0.1943,0.1946,0.195,0.1943,0.1939,0.1936,0.1932,0.2008,0.2015,0.2021,0.214,0,0,0.2042,0.2045,0,0,0,0,0,0,0,0,0.1716,0.1729,0.1797,0.18,0.1803,0.1916,0.1913,0.2008,0.1944,0.1894,0.1935,0.193,0.1973,0.1982,0.2027,0.2143,0.2147,0.2042,0.2046,0.2049,0.2051,0,0,0,0,0,0,0,0.1708,0.1723,0.1851,0.1799,0.1803,0.1847,0.1857,0.1932,0.1954,0.1898,0.1897,0.1911,0.1974,0.2021,0.2028,0.2148,0.2042,0.2048,0.2052,0.2055,0.2338,0.2341,0,0,0,0,0,0,0.1679,0.1716,0.1846,0.1856,0.1745,0.1852,0.1864,0.1887,0.1955,0.1962,0.1914,0.191,0.2011,0.2021,0.2031,0.2101,0.2049,0.2056,0.2059,0.2334,0.2339,0.2342,0,0,0,0,0,0,0.1675,0.169,0.184,0.1786,0.1807,0.1858,0.1884,0.1892,0.1936,0.1967,0.1972,0.1947,0.2008,0.2021,0.2114,0.2105,0.2059,0.2065,0.233,0.2336,0.2341,0.2287,0,0,0,0,0,0,0.167,0.1688,0.1708,0.1784,0.1809,0.1913,0.1888,0.1898,0.1948,0.1944,0.1999,0.2002,0.2006,0.2104,0.212,0.2114,0.207,0.2326,0.2333,0.2339,0.2284,0.229,0.2294,0,0,0,0,0,0.1663,0.1724,0.1708,0.1724,0.1831,0.1914,0.1933,0.1958,0.1953,0.1983,0.2032,0.2,0.2156,0.2114,0.2132,0.2126,0.2323,0.2331,0.2338,0.2282,0.2289,0.2294,0,0,0,0,0,0,0.1689,0.1731,0.1715,0.1791,0.1832,0.1911,0.1954,0.1976,0.2046,0.2039,0.2065,0.2075,0.2145,0.218,0.2133,0.2237,0.2228,0.224,0.2179,0.2186,0.2191,0.2165,0.2075,0,0,0,0,0,0.1695,0.1728,0.1774,0.1831,0.1849,0.1903,0.1945,0.1959,0.2024,0.2051,0.209,0.2145,0.2203,0.2225,0.2287,0.2364,0.2384,0.2374,0.2379,0.2382,0.2382,0.2448,0.2457,0.2368,0.2368,0.2368,0,0,0.1722,0.1748,0.1769,0.1835,0.1869,0.1901,0.192,0.1983,0.2004,0.2052,0.2114,0.2173,0.2236,0.2301,0.2334,0.2318,0.2418,0.2393,0.2394,0.2391,0.2457,0.2465,0.2472,0.2374,0.2373,0.2372,0,0,0.1765,0.1808,0.1823,0.1854,0.1893,0.193,0.1944,0.2018,0.2038,0.2117,0.215,0.222,0.2312,0.2349,0.2379,0.2471,0.2451,0.2483,0.2469,0.2533,0.2539,0.2545,0.2552,0.2559,0.2472,0.2472,0.2472,0,0.1784,0.181,0.1849,0.1863,0.1885,0.1934,0.1951,0.2001,0.2094,0.2127,0.2118,0.2283,0.2327,0.2408,0.2425,0.2471,0.2492,0.2421,0.2532,0.2538,0.2545,0.2552,0.2559,0.2471,0.2471,0.2471,0.2471,0,0.1809,0.1832,0.1858,0.1865,0.1904,0.1947,0.1985,0.2035,0.2066,0.2112,0.2205,0.2288,0.2376,0.2399,0.2431,0.2508,0.2501,0.2529,0.2492,0.2549,0.2554,0.2563,0.2468,0.2469,0.2469,0.247,0,0,0.1828,0.1861,0.1862,0.1849,0.1905,0.1935,0.1982,0.2043,0.2068,0.2151,0.22,0.2311,0.2361,0.2405,0.2461,0.2509,0.2559,0.2529,0.2533,0.2492,0.2661,0.2625,0.2631,0.26,0.2602,0.2604,0.2632,0,0.1819,0.183,0.1857,0.1869,0.1876,0.1928,0.196,0.202,0.2079,0.2146,0.2237,0.231,0.2359,0.2393,0.246,0.2548,0.2587,0.2546,0.2652,0.2654,0.258,0.2643,0.2586,0.2606,0.2641,0.2642,0.2644,0,0.1802,0.1813,0.1818,0.1838,0.1844,0.186,0.1913,0.1951,0.2059,0.2102,0.2203,0.2283,0.2392,0.2413,0.2568,0.2538,0.2599,0.2649,0.2652,0.2644,0.2637,0.257,0.2621,0.2567,0.2657,0.2656,0.2655,0,0.1756,0.1779,0.1777,0.1787,0.1825,0.1832,0.1858,0.1941,0.1976,0.2082,0.2123,0.2267,0.2328,0.2448,0.2576,0.2574,0.2719,0.2731,0.2749,0.2744,0.2732,0.2723,0.2709,0.2832,0.2832,0.2832,0.2832,0,0.1735,0.1728,0.1747,0.1746,0.1735,0.1774,0.1787,0.1836,0.1917,0.1964,0.2098,0.2161,0.2343,0.2461,0.2568,0.2684,0.2722,0.2753,0.2765,0.2711,0.2701,0.2683,0.2677,0.2833,0.2833,0.2833,0.2833,0,0.1684,0.1704,0.169,0.1709,0.171,0.1696,0.173,0.1745,0.1826,0.189,0.1924,0.2093,0.2241,0.2409,0.2588,0.2656,0.2716,0.2804,0.2699,0.2699,0.2646,0.2641,0.2553,0.2491,0.2815,0.2815,0.2815,0,0.1662,0.165,0.1645,0.1625,0.1629,0.1622,0.1618,0.1689,0.1715,0.1849,0.1876,0.2039,0.2157,0.2394,0.2562,0.2726,0.2691,0.2734,0.2734,0.2637,0.2642,0.2525,0.247,0.2684,0.2682,0.2681,0.268,0,0.1612,0.1604,0.1593,0.1557,0.1535,0.1515,0.1521,0.154,0.1629,0.1689,0.1781,0.1883,0.2131,0.2296,0.2515,0.262,0.261,0.2712,0.2667,0.2584,0.2404,0.2352,0.2627,0.267,0.2671,0.2672,0.2672,0.2673,0.1561,0.1534,0.1512,0.1472,0.1442,0.1403,0.1384,0.142,0.1454,0.1546,0.1665,0.179,0.2068,0.2383,0.2457,0.256,0.2539,0.2554,0.2566,0.2459,0.2371,0.259,0.2617,0.2618,0.2619,0.2619,0.262,0,0.1483,0.146,0.1426,0.1368,0.1306,0.132,0.1309,0.1298,0.132,0.1443,0.1526,0.1778,0.1991,0.2217,0.245,0.2432,0.2334,0.2398,0.2241,0.2206,0.2465,0.2432,0.2354,0.2354,0.2354,0.2354,0.2354,0.2355,0.1434,0.1379,0.1365,0.1246,0.1206,0.1118,0.1104,0.1119,0.1189,0.1306,0.1431,0.1581,0.191,0.2254,0.2365,0.2335,0.2182,0.2104,0.2082,0.2303,0.2318,0.2332,0.2298,0.2193,0.2193,0.1729,0.1726,0.1724]},{"header":{"parameterUnit":"m.s-1","parameterCategory":2,"la1":30.2991,"la2":30.254,"lo1":-89.0895,"lo2":-89.0444,"dy":0.0017,"dx":0.0017,"nx":28,"ny":28,"refTime":"2026-02-09T03:00:00:Z","depth":"0","parameterNumber":3,"parameterNumberName":"V-component_of_CURRENTS"},"data":[0,0,0,0,0,0,0,0,0,0,0,0,0,0,0,0,0,0,0,0,0,0,0,0,0,0,0,0,0,0,0,0,0,0,0,0,0,0,0,0,0,0,0,0,0,0,0,0,0,0,0,0,0,0,0,0,0,0,0.0955,0.0954,0,0.0886,0.0886,0.0885,0.0741,0.0738,0.0735,0.0732,0.0658,0.0658,0.0659,0,0,0,0,0,0,0,0,0,0,0,0,0,0.0959,0.096,0.0955,0.0954,0.0953,0.0887,0.0886,0.0885,0.0741,0.0738,0.0734,0.0731,0.0657,0.0658,0.0659,0,0,0,0,0,0,0,0,0,0,0,0,0,0.0931,0.096,0.0955,0.0874,0.0866,0.0887,0.0886,0.0884,0.0742,0.0738,0.0733,0.0729,0.0657,0.0658,0.0659,0.0753,0,0,0.0662,0.0663,0,0,0,0,0,0,0,0,0.0933,0.0931,0.0887,0.0879,0.087,0.0818,0.0859,0.084,0.0743,0.0789,0.0732,0.0727,0.0714,0.071,0.0707,0.075,0.0746,0.0663,0.0663,0.0664,0.0664,0,0,0,0,0,0,0,0.0935,0.0933,0.0928,0.0886,0.0876,0.084,0.0831,0.0855,0.0777,0.0785,0.0774,0.0768,0.0709,0.0706,0.0704,0.0745,0.0662,0.0663,0.0664,0.0665,0.0797,0.08,0,0,0,0,0,0,0.0949,0.0936,0.093,0.0926,0.0891,0.0843,0.0833,0.0839,0.0776,0.0762,0.0772,0.0761,0.0706,0.0703,0.0701,0.0782,0.0664,0.0665,0.0665,0.0794,0.0798,0.0801,0,0,0,0,0,0,0.095,0.095,0.0933,0.0928,0.0923,0.0848,0.0855,0.084,0.0838,0.0766,0.0751,0.0785,0.0703,0.0699,0.0743,0.0779,0.0665,0.0666,0.0791,0.0795,0.0799,0.0963,0,0,0,0,0,0,0.095,0.0951,0.0967,0.093,0.0924,0.0973,0.0859,0.0842,0.0841,0.0827,0.0775,0.0761,0.0699,0.0742,0.0744,0.0778,0.0667,0.0787,0.0793,0.0798,0.0954,0.0972,0.0988,0,0,0,0,0,0.0951,0.1007,0.0969,0.0968,0.0947,0.0977,0.0973,0.0902,0.0846,0.0879,0.0837,0.0763,0.0775,0.0748,0.0749,0.0783,0.0784,0.0791,0.0797,0.0946,0.0968,0.0987,0,0,0,0,0,0,0.106,0.0996,0.0954,0.0997,0.0994,0.0953,0.0979,0.0934,0.0929,0.0913,0.0829,0.0819,0.0867,0.0821,0.0792,0.0836,0.0758,0.0765,0.087,0.0891,0.0908,0.0864,0.0668,0,0,0,0,0,0.1084,0.108,0.1046,0.1088,0.1091,0.1042,0.1045,0.1005,0.0989,0.0979,0.095,0.0912,0.0901,0.0891,0.089,0.0939,0.087,0.0953,0.097,0.0985,0.0951,0.0916,0.0926,0.0822,0.0822,0.0822,0,0,0.1137,0.1106,0.1105,0.1105,0.1094,0.1124,0.1035,0.1067,0.1059,0.0982,0.1002,0.0998,0.0935,0.0973,0.0987,0.0933,0.0988,0.0993,0.1006,0.0962,0.0924,0.0933,0.0942,0.0826,0.0825,0.0825,0,0,0.1239,0.1224,0.1241,0.1244,0.1234,0.1216,0.1236,0.1222,0.1177,0.1214,0.1144,0.1168,0.116,0.1118,0.1087,0.1208,0.1097,0.1206,0.1239,0.1209,0.1216,0.1221,0.1181,0.1181,0.1194,0.1194,0.1194,0,0.1304,0.131,0.1268,0.1295,0.1307,0.1266,0.1315,0.1283,0.1282,0.1258,0.1236,0.1233,0.1213,0.1203,0.123,0.1243,0.1195,0.1168,0.1229,0.1232,0.1234,0.1191,0.1189,0.1203,0.1202,0.1201,0.12,0,0.1395,0.1407,0.1444,0.1435,0.1466,0.1515,0.147,0.1484,0.1447,0.1399,0.1405,0.1389,0.1364,0.1379,0.1332,0.1344,0.1298,0.1273,0.1172,0.1254,0.1205,0.12,0.1215,0.1212,0.1209,0.1207,0,0,0.1503,0.1496,0.1502,0.1505,0.1535,0.1568,0.1583,0.1569,0.1555,0.1539,0.1527,0.1515,0.1493,0.1457,0.1428,0.1394,0.1407,0.1336,0.1331,0.1286,0.1324,0.127,0.1258,0.1388,0.1387,0.1387,0.1294,0,0.1576,0.1623,0.1616,0.1692,0.1718,0.1701,0.1714,0.1694,0.1666,0.166,0.158,0.1587,0.1514,0.1538,0.1489,0.1426,0.1394,0.1432,0.1255,0.1249,0.1183,0.1251,0.1242,0.1155,0.1288,0.1287,0.1286,0,0.1631,0.1655,0.1718,0.1754,0.1771,0.1823,0.1844,0.1843,0.1796,0.1769,0.1737,0.1696,0.164,0.16,0.1455,0.1477,0.1407,0.1349,0.1344,0.1215,0.1184,0.1087,0.1139,0.0955,0.1277,0.1278,0.1278,0,0.1648,0.1717,0.1758,0.1776,0.1827,0.1854,0.1887,0.1875,0.1853,0.1848,0.1867,0.1774,0.1751,0.1625,0.148,0.1474,0.1325,0.131,0.1191,0.1186,0.1097,0.1085,0.093,0.1231,0.1231,0.1231,0.1231,0,0.1683,0.172,0.1765,0.1784,0.1856,0.1884,0.1937,0.1943,0.1947,0.1951,0.1918,0.1921,0.1757,0.1652,0.1508,0.1308,0.1335,0.1186,0.1156,0.116,0.1155,0.0921,0.0845,0.1227,0.1228,0.1229,0.123,0,0.1672,0.1691,0.174,0.1812,0.1848,0.1889,0.1967,0.1989,0.2003,0.2024,0.2034,0.1998,0.1877,0.17,0.1518,0.1352,0.1081,0.1123,0.113,0.1102,0.0805,0.074,0.0567,0.0468,0.0963,0.0961,0.0959,0,0.166,0.1687,0.1753,0.1799,0.184,0.1911,0.1959,0.1996,0.2021,0.2064,0.2074,0.202,0.1982,0.168,0.1409,0.1145,0.1023,0.0966,0.0956,0.077,0.0677,0.0671,0.06,0.0919,0.0918,0.0916,0.0915,0,0.1679,0.169,0.1719,0.1806,0.1874,0.1941,0.2016,0.2035,0.2074,0.2116,0.2151,0.215,0.1918,0.1661,0.1325,0.1139,0.0838,0.0926,0.0736,0.0619,0.0598,0.0496,0.0991,0.0902,0.0903,0.0904,0.0905,0.0905,0.1693,0.1699,0.1739,0.1827,0.1898,0.1965,0.2014,0.2074,0.2118,0.217,0.2193,0.2197,0.188,0.143,0.1156,0.0659,0.0724,0.053,0.0466,0.0475,0.0377,0.0831,0.0709,0.0709,0.0709,0.0709,0.0709,0,0.1713,0.1728,0.1792,0.1873,0.1948,0.1985,0.2053,0.2087,0.2142,0.2193,0.2239,0.2062,0.1644,0.1216,0.0584,0.0258,0.017,0.0092,0.0071,0.0016,0.041,0.0403,0.0206,0.0206,0.0207,0.0207,0.0207,0.0207,0.1726,0.1752,0.1766,0.1898,0.1969,0.2045,0.2068,0.2113,0.2152,0.2165,0.2139,0.2141,0.1796,0.0783,0.0033,-0.0142,-0.0379,-0.037,-0.0507,-0.0255,-0.0219,-0.0184,-0.0212,-0.0534,-0.0535,-0.0856,-0.0859,-0.0862]}],[{"header":{"parameterUnit":"m.s-1","parameterCategory":2,"la1":30.2991,"la2":30.254,"lo1":-89.0895,"lo2":-89.0444,"dy":0.0017,"dx":0.0017,"nx":28,"ny":28,"refTime":"2026-02-09T03:00:00:Z","depth":"2","parameterNumber":2,"parameterNumberName":"U-component_of_CURRENTS"},"data":[0,0,0,0,0,0,0,0,0,0,0,0,0,0,0,0,0,0,0,0,0,0,0,0,0,0,0,0,0,0,0,0,0,0,0,0,0,0,0,0,0,0,0,0,0,0,0,0,0,0,0,0,0,0,0,0,0,0,0.1266,0.1266,0,0.1286,0.1287,0.1287,0.1326,0.1326,0.1327,0.1327,0.1317,0.1317,0.1316,0,0,0,0,0,0,0,0,0,0,0,0,0,0.1321,0.1319,0.1266,0.1266,0.1266,0.1286,0.1287,0.1287,0.1326,0.1326,0.1327,0.1327,0.1318,0.1317,0.1316,0,0,0,0,0,0,0,0,0,0,0,0,0,0.1317,0.1319,0.1266,0.1285,0.1287,0.1286,0.1287,0.1287,0.1325,0.1326,0.1327,0.1327,0.1318,0.1317,0.1316,0.1295,0,0,0.1313,0.1312,0,0,0,0,0,0,0,0,0.1317,0.1315,0.1283,0.1284,0.1286,0.1301,0.1302,0.1287,0.1325,0.1314,0.1327,0.1328,0.1307,0.1307,0.1314,0.1295,0.1294,0.1312,0.1312,0.1311,0.1311,0,0,0,0,0,0,0,0.1317,0.1315,0.1277,0.1282,0.1284,0.1313,0.1313,0.13,0.1308,0.1315,0.1317,0.1314,0.1308,0.1315,0.1313,0.1294,0.1312,0.1312,0.1311,0.1311,0.1299,0.1299,0,0,0,0,0,0,0.1304,0.1315,0.1277,0.1278,0.13,0.1311,0.1311,0.1298,0.1309,0.1311,0.1314,0.1316,0.1316,0.1315,0.1313,0.1321,0.1311,0.131,0.131,0.1299,0.1299,0.1299,0,0,0,0,0,0,0.1305,0.13,0.1276,0.1295,0.1294,0.1309,0.1294,0.1298,0.1339,0.1308,0.1309,0.1353,0.1317,0.1315,0.1322,0.1319,0.131,0.1309,0.1298,0.1299,0.1299,0.1315,0,0,0,0,0,0,0.1307,0.13,0.1313,0.1294,0.1292,0.1296,0.1293,0.1298,0.1332,0.1337,0.1341,0.1339,0.1317,0.1324,0.1321,0.1318,0.1308,0.1298,0.1298,0.1299,0.1314,0.1316,0.1317,0,0,0,0,0,0.1308,0.1303,0.1313,0.131,0.1299,0.1296,0.13,0.1315,0.1334,0.1355,0.1354,0.1341,0.1325,0.1323,0.132,0.1316,0.1298,0.1298,0.1299,0.1313,0.1315,0.1317,0,0,0,0,0,0,0.1309,0.1306,0.1316,0.1305,0.1315,0.1302,0.1316,0.1337,0.1356,0.1364,0.1348,0.1345,0.1345,0.1336,0.1334,0.1316,0.1308,0.1308,0.132,0.1322,0.1324,0.1327,0.1307,0,0,0,0,0,0.1319,0.132,0.1323,0.1309,0.1321,0.1332,0.1343,0.1356,0.1357,0.1369,0.1368,0.136,0.134,0.1339,0.1322,0.1319,0.1325,0.1315,0.1316,0.1318,0.1319,0.1331,0.1334,0.1302,0.1302,0.1302,0,0,0.1302,0.1306,0.1301,0.1313,0.1318,0.1319,0.1341,0.1358,0.1359,0.1361,0.1369,0.1368,0.1341,0.1329,0.1329,0.1325,0.1332,0.1319,0.132,0.132,0.1332,0.1335,0.1338,0.1302,0.1302,0.1302,0,0,0.1259,0.1286,0.1279,0.13,0.1325,0.1331,0.1347,0.1364,0.1383,0.1386,0.1383,0.1393,0.1365,0.1351,0.1335,0.1342,0.134,0.1338,0.1348,0.136,0.1363,0.1365,0.1387,0.1391,0.134,0.134,0.134,0,0.1245,0.1243,0.1276,0.1282,0.1298,0.1338,0.1341,0.1351,0.1369,0.1385,0.1387,0.1378,0.1366,0.135,0.1349,0.1344,0.1358,0.134,0.1362,0.1365,0.1367,0.1389,0.1393,0.134,0.134,0.134,0.134,0,0.1203,0.1219,0.1215,0.1236,0.1258,0.1272,0.1294,0.1325,0.1351,0.1361,0.1378,0.1372,0.1372,0.1366,0.1352,0.1364,0.1372,0.1363,0.1357,0.1371,0.1393,0.1398,0.1342,0.1341,0.1341,0.1341,0,0,0.1121,0.1179,0.1181,0.1213,0.1254,0.1267,0.1273,0.1302,0.1328,0.1342,0.1366,0.1342,0.1377,0.1362,0.1368,0.1377,0.1408,0.1382,0.1382,0.1404,0.1448,0.1435,0.1439,0.1407,0.1407,0.1408,0.1461,0,0.1086,0.1109,0.1139,0.116,0.1186,0.1237,0.1243,0.1277,0.1308,0.1342,0.1353,0.1371,0.1361,0.1385,0.1389,0.1406,0.1419,0.1395,0.143,0.1432,0.1418,0.1442,0.1332,0.1369,0.1466,0.1466,0.1467,0,0.1046,0.1079,0.1105,0.1174,0.1189,0.12,0.1267,0.1281,0.1325,0.1351,0.1377,0.1399,0.1421,0.1413,0.1441,0.143,0.1441,0.1449,0.1451,0.1434,0.1426,0.1368,0.1373,0.1474,0.1473,0.1473,0.1472,0,0.1017,0.1059,0.1095,0.1118,0.1183,0.1209,0.1241,0.129,0.1318,0.1375,0.1406,0.1431,0.1458,0.1469,0.1489,0.1474,0.1523,0.15,0.1497,0.1496,0.1406,0.1397,0.1518,0.1518,0.1518,0.1517,0.1517,0,0.0993,0.1022,0.1094,0.112,0.116,0.1212,0.1256,0.1292,0.1346,0.1383,0.1421,0.1454,0.1475,0.1506,0.151,0.1525,0.154,0.1506,0.1509,0.141,0.1401,0.1489,0.1485,0.1519,0.1519,0.1519,0.1518,0,0.0964,0.101,0.1055,0.113,0.1152,0.1187,0.1254,0.1286,0.1347,0.1397,0.142,0.1479,0.1527,0.1549,0.158,0.1555,0.1571,0.1571,0.1462,0.1451,0.1531,0.1527,0.1568,0.1568,0.1568,0.1568,0.1568,0,0.0958,0.098,0.1054,0.1079,0.1115,0.117,0.1202,0.1272,0.1305,0.1408,0.1426,0.1503,0.1536,0.1583,0.157,0.1582,0.1598,0.1481,0.142,0.1538,0.1537,0.1533,0.1529,0.1312,0.131,0.1308,0.1307,0,0.0941,0.0967,0.1003,0.105,0.1091,0.1132,0.1188,0.1213,0.1302,0.1342,0.1416,0.1461,0.1524,0.1487,0.1509,0.1493,0.1468,0.1447,0.16,0.1318,0.1301,0.1298,0.1302,0.1292,0.1293,0.1294,0.1295,0.1296,0.0921,0.0933,0.0977,0.1019,0.1059,0.1095,0.1114,0.117,0.1212,0.1255,0.1327,0.1342,0.1388,0.1354,0.1337,0.1325,0.1411,0.1341,0.1344,0.1349,0.1311,0.1295,0.1279,0.128,0.1281,0.1282,0.1283,0,0.0893,0.0913,0.0944,0.099,0.1015,0.1056,0.1102,0.1093,0.1122,0.1157,0.1181,0.1096,0.1095,0.1154,0.1118,0.1132,0.1095,0.1087,0.1028,0.1046,0.1061,0.1005,0.0893,0.0891,0.089,0.0889,0,0,0.0879,0.0891,0.0909,0.0939,0.0975,0.0991,0.101,0.0987,0.0995,0.0948,0.0939,0.098,0.1097,0.0953,0.0965,0.0926,0.0966,0.089,0.1207,0.1153,0.1166,0.1219,0.1155,0,0,0,0,0]},{"header":{"parameterUnit":"m.s-1","parameterCategory":2,"la1":30.2991,"la2":30.254,"lo1":-89.0895,"lo2":-89.0444,"dy":0.0017,"dx":0.0017,"nx":28,"ny":28,"refTime":"2026-02-09T03:00:00:Z","depth":"2","parameterNumber":3,"parameterNumberName":"V-component_of_CURRENTS"},"data":[0,0,0,0,0,0,0,0,0,0,0,0,0,0,0,0,0,0,0,0,0,0,0,0,0,0,0,0,0,0,0,0,0,0,0,0,0,0,0,0,0,0,0,0,0,0,0,0,0,0,0,0,0,0,0,0,0,0,-0.0598,-0.0598,0,-0.0661,-0.0662,-0.0663,-0.0693,-0.0693,-0.0692,-0.0691,-0.0738,-0.074,-0.0741,0,0,0,0,0,0,0,0,0,0,0,0,0,-0.057,-0.057,-0.0598,-0.0598,-0.0598,-0.0661,-0.0662,-0.0664,-0.0693,-0.0693,-0.0692,-0.0691,-0.0737,-0.0739,-0.0742,0,0,0,0,0,0,0,0,0,0,0,0,0,-0.0608,-0.057,-0.0598,-0.0616,-0.0618,-0.066,-0.0662,-0.0664,-0.0694,-0.0693,-0.0692,-0.0691,-0.0737,-0.0739,-0.0742,-0.0777,0,0,-0.075,-0.0751,0,0,0,0,0,0,0,0,-0.0606,-0.061,-0.0613,-0.0615,-0.0617,-0.0663,-0.0669,-0.0699,-0.0694,-0.0672,-0.0691,-0.069,-0.0708,-0.0713,-0.0736,-0.078,-0.0782,-0.075,-0.0752,-0.0753,-0.0754,0,0,0,0,0,0,0,-0.0603,-0.0608,-0.0629,-0.0613,-0.0615,-0.0643,-0.0648,-0.0676,-0.0699,-0.0673,-0.0674,-0.0671,-0.0709,-0.0733,-0.0737,-0.0782,-0.075,-0.0753,-0.0754,-0.0756,-0.0862,-0.0863,0,0,0,0,0,0,-0.058,-0.0605,-0.0627,-0.0631,-0.0602,-0.0643,-0.0649,-0.0654,-0.0699,-0.0703,-0.0672,-0.0672,-0.0729,-0.0734,-0.0739,-0.0762,-0.0753,-0.0756,-0.0757,-0.0861,-0.0863,-0.0864,0,0,0,0,0,0,-0.0579,-0.0582,-0.0625,-0.0614,-0.062,-0.0644,-0.065,-0.0656,-0.0684,-0.0697,-0.0702,-0.0693,-0.0729,-0.0735,-0.0783,-0.0765,-0.0757,-0.076,-0.086,-0.0862,-0.0863,-0.0822,0,0,0,0,0,0,-0.0579,-0.0582,-0.0598,-0.0612,-0.0619,-0.0653,-0.065,-0.0657,-0.068,-0.0681,-0.0717,-0.072,-0.0728,-0.0779,-0.0785,-0.0768,-0.0762,-0.0858,-0.086,-0.0863,-0.0822,-0.0823,-0.0823,0,0,0,0,0,-0.0578,-0.06,-0.0599,-0.0602,-0.0635,-0.0653,-0.0661,-0.0678,-0.0681,-0.07,-0.0732,-0.0719,-0.0796,-0.0783,-0.079,-0.0773,-0.0857,-0.086,-0.0862,-0.0822,-0.0822,-0.0823,0,0,0,0,0,0,-0.0606,-0.0605,-0.0604,-0.0628,-0.0637,-0.0655,-0.0674,-0.0685,-0.0728,-0.0725,-0.0748,-0.0755,-0.0787,-0.0801,-0.0786,-0.0815,-0.0819,-0.0824,-0.0786,-0.0787,-0.0787,-0.0756,-0.0764,0,0,0,0,0,-0.0615,-0.0624,-0.0627,-0.0646,-0.0647,-0.0663,-0.0678,-0.0681,-0.0707,-0.0725,-0.0751,-0.0778,-0.0805,-0.0814,-0.0845,-0.0868,-0.0868,-0.0861,-0.0861,-0.0861,-0.0844,-0.0859,-0.0857,-0.0873,-0.0873,-0.0873,0,0,-0.0623,-0.0629,-0.0632,-0.0651,-0.0658,-0.0652,-0.0672,-0.0682,-0.0681,-0.0722,-0.075,-0.0788,-0.0818,-0.0842,-0.0854,-0.0847,-0.0858,-0.0864,-0.0863,-0.0847,-0.0861,-0.0859,-0.0857,-0.0875,-0.0874,-0.0874,0,0,-0.062,-0.0652,-0.0641,-0.0651,-0.0651,-0.066,-0.0661,-0.0678,-0.0695,-0.0728,-0.0752,-0.0785,-0.0833,-0.0843,-0.0854,-0.088,-0.0868,-0.0889,-0.085,-0.0864,-0.0862,-0.086,-0.085,-0.0848,-0.0877,-0.0877,-0.0877,0,-0.0628,-0.0617,-0.0645,-0.0634,-0.0632,-0.0656,-0.0635,-0.0662,-0.0697,-0.0707,-0.0728,-0.0798,-0.0825,-0.0838,-0.0845,-0.0874,-0.0878,-0.0839,-0.086,-0.0859,-0.0857,-0.0848,-0.0845,-0.0875,-0.0875,-0.0875,-0.0876,0,-0.0598,-0.0598,-0.0596,-0.0582,-0.0595,-0.0587,-0.0602,-0.0625,-0.0649,-0.0667,-0.0706,-0.076,-0.0794,-0.0807,-0.0832,-0.0834,-0.0838,-0.0865,-0.0847,-0.0852,-0.0843,-0.0841,-0.0873,-0.0873,-0.0874,-0.0874,0,0,-0.0569,-0.057,-0.0566,-0.0557,-0.0563,-0.0569,-0.057,-0.0578,-0.0582,-0.063,-0.0637,-0.0694,-0.0727,-0.0744,-0.0781,-0.0788,-0.0785,-0.0815,-0.0817,-0.0783,-0.0798,-0.0752,-0.0745,-0.0816,-0.0815,-0.0815,-0.0791,0,-0.0523,-0.05,-0.0506,-0.0484,-0.0472,-0.0498,-0.0503,-0.0522,-0.0552,-0.0578,-0.0624,-0.0656,-0.0701,-0.0719,-0.0736,-0.0782,-0.078,-0.0787,-0.0817,-0.0817,-0.0758,-0.0742,-0.0724,-0.0697,-0.0789,-0.0789,-0.0789,0,-0.047,-0.0467,-0.0438,-0.044,-0.0436,-0.0433,-0.0447,-0.0453,-0.049,-0.0513,-0.0546,-0.0592,-0.062,-0.0663,-0.071,-0.0715,-0.0746,-0.0774,-0.0775,-0.074,-0.0768,-0.0712,-0.069,-0.0786,-0.0786,-0.0786,-0.0786,0,-0.0439,-0.0416,-0.0399,-0.04,-0.0408,-0.0404,-0.0409,-0.0435,-0.0436,-0.0473,-0.0475,-0.053,-0.055,-0.0606,-0.0665,-0.0692,-0.0704,-0.0753,-0.0733,-0.0729,-0.0721,-0.0717,-0.077,-0.077,-0.077,-0.077,-0.077,0,-0.0396,-0.0383,-0.0389,-0.0388,-0.0367,-0.0383,-0.0369,-0.0385,-0.0395,-0.038,-0.0445,-0.0436,-0.0538,-0.0563,-0.0631,-0.0658,-0.0678,-0.0706,-0.0716,-0.0707,-0.0702,-0.0793,-0.0796,-0.0769,-0.0769,-0.077,-0.077,0,-0.0371,-0.0373,-0.0358,-0.0359,-0.0356,-0.0349,-0.0334,-0.0324,-0.034,-0.0318,-0.0322,-0.0359,-0.0383,-0.0463,-0.0535,-0.0594,-0.064,-0.0643,-0.0607,-0.0613,-0.0666,-0.0668,-0.0625,-0.0623,-0.0621,-0.062,-0.0619,0,-0.0359,-0.035,-0.0341,-0.0325,-0.0325,-0.0311,-0.0293,-0.03,-0.0276,-0.0259,-0.0237,-0.0249,-0.0233,-0.0309,-0.0419,-0.0499,-0.0555,-0.0538,-0.0588,-0.0634,-0.0649,-0.0654,-0.0657,-0.0565,-0.0563,-0.0562,-0.0561,0,-0.0332,-0.0333,-0.0321,-0.0289,-0.0268,-0.0238,-0.021,-0.018,-0.0169,-0.0123,-0.0056,-0.0035,-0.0111,-0.0176,-0.0294,-0.0369,-0.0529,-0.0513,-0.0574,-0.0597,-0.0574,-0.059,-0.0597,-0.055,-0.0551,-0.0552,-0.0553,-0.0553,-0.0307,-0.029,-0.0269,-0.0237,-0.0207,-0.0155,-0.0113,-0.006,0.0016,0.0092,0.0088,0.0135,0.0009,-0.011,-0.023,-0.0385,-0.0411,-0.0483,-0.0489,-0.0496,-0.0486,-0.0461,-0.0413,-0.0413,-0.0413,-0.0413,-0.0414,0,-0.0259,-0.0243,-0.0212,-0.0165,-0.0117,-0.0116,-0.0044,0.0017,0.014,0.0203,0.0275,0.0207,0.0127,-0.0026,-0.023,-0.0351,-0.0399,-0.0397,-0.0442,-0.0451,-0.046,-0.0451,-0.0367,-0.0367,-0.0367,-0.0367,0,0,-0.023,-0.0188,-0.0174,-0.0087,-0.0052,0.0026,0.0076,0.0175,0.0242,0.0348,0.0381,0.0364,0.0186,0.0054,-0.0125,-0.0241,-0.032,-0.0268,-0.0294,-0.0335,-0.0342,-0.0499,-0.0494,0,0,0,0,0]}],[{"header":{"parameterUnit":"m.s-1","parameterCategory":2,"la1":30.2991,"la2":30.254,"lo1":-89.0895,"lo2":-89.0444,"dy":0.0017,"dx":0.0017,"nx":28,"ny":28,"refTime":"2026-02-09T03:00:00:Z","depth":"4","parameterNumber":2,"parameterNumberName":"U-component_of_CURRENTS"},"data":[0,0,0,0,0,0,0,0,0,0,0,0,0,0,0,0,0,0,0,0,0,0,0,0,0,0,0,0,0,0,0,0,0,0,0,0,0,0,0,0,0,0,0,0,0,0,0,0,0,0,0,0,0,0,0,0,0,0,0.0566,0.0566,0,0.058,0.0581,0.0581,0.0613,0.0613,0.0614,0.0615,0.065,0.065,0.065,0,0,0,0,0,0,0,0,0,0,0,0,0,0.0562,0.0562,0.0566,0.0566,0.0566,0.058,0.0581,0.0581,0.0613,0.0614,0.0614,0.0615,0.065,0.065,0.065,0,0,0,0,0,0,0,0,0,0,0,0,0,0.0567,0.0562,0.0566,0.0585,0.0587,0.058,0.0581,0.0581,0.0612,0.0614,0.0615,0.0616,0.065,0.065,0.065,0.0628,0,0,0.0651,0.0651,0,0,0,0,0,0,0,0,0.0567,0.0567,0.0582,0.0584,0.0586,0.0597,0.0592,0.0598,0.0612,0.0601,0.0615,0.0616,0.0634,0.0636,0.0633,0.063,0.0631,0.0651,0.0651,0.0651,0.0651,0,0,0,0,0,0,0,0.0567,0.0567,0.057,0.0582,0.0585,0.0592,0.0594,0.0593,0.061,0.0602,0.0605,0.0609,0.0635,0.0633,0.0635,0.0632,0.0651,0.0651,0.0651,0.0652,0.0666,0.0666,0,0,0,0,0,0,0.0566,0.0566,0.057,0.0571,0.0581,0.0591,0.0593,0.0591,0.061,0.0614,0.0608,0.061,0.0632,0.0634,0.0636,0.0666,0.0651,0.0652,0.0652,0.0665,0.0666,0.0666,0,0,0,0,0,0,0.0566,0.0566,0.0569,0.057,0.0572,0.059,0.0587,0.0591,0.0608,0.0614,0.0618,0.0624,0.0633,0.0636,0.0649,0.0666,0.0652,0.0652,0.0665,0.0666,0.0666,0.0692,0,0,0,0,0,0,0.0566,0.0566,0.0567,0.057,0.0572,0.0574,0.0587,0.059,0.0608,0.0612,0.0629,0.0632,0.0634,0.0649,0.065,0.0666,0.0652,0.0665,0.0665,0.0666,0.0691,0.0693,0.0695,0,0,0,0,0,0.0565,0.0557,0.0567,0.0568,0.0571,0.0575,0.0576,0.0592,0.0608,0.0613,0.0627,0.0633,0.0652,0.0649,0.065,0.0667,0.0665,0.0665,0.0666,0.069,0.0693,0.0695,0,0,0,0,0,0,0.0548,0.0559,0.0571,0.0564,0.0576,0.0581,0.0585,0.0599,0.0613,0.0623,0.0632,0.0635,0.0654,0.0652,0.0649,0.0671,0.066,0.0661,0.0678,0.0681,0.0683,0.0699,0.0652,0,0,0,0,0,0.0546,0.0547,0.056,0.0556,0.0563,0.0578,0.0584,0.0598,0.0609,0.0617,0.0632,0.0644,0.0651,0.0661,0.0663,0.0674,0.0678,0.0686,0.0688,0.069,0.0702,0.0711,0.0715,0.0667,0.0667,0.0667,0,0,0.0537,0.0544,0.0544,0.0554,0.0563,0.0576,0.0585,0.0597,0.0614,0.0617,0.0645,0.0651,0.0654,0.0668,0.0676,0.0674,0.0705,0.069,0.0692,0.0703,0.0712,0.0717,0.0721,0.0668,0.0668,0.0668,0,0,0.0525,0.0529,0.0534,0.0546,0.0567,0.0576,0.0586,0.0605,0.0621,0.0642,0.065,0.0668,0.068,0.0689,0.0693,0.0706,0.0712,0.0709,0.0738,0.0746,0.0751,0.0754,0.0766,0.0771,0.0714,0.0714,0.0714,0,0.0519,0.0526,0.0535,0.0549,0.0562,0.0581,0.0598,0.061,0.0634,0.065,0.0657,0.0686,0.0691,0.071,0.0722,0.0713,0.0721,0.0729,0.075,0.0754,0.0758,0.0768,0.0773,0.0715,0.0715,0.0715,0.0715,0,0.0516,0.053,0.0532,0.0559,0.0573,0.0585,0.061,0.0631,0.0656,0.0672,0.0703,0.071,0.0731,0.0734,0.0737,0.0766,0.0764,0.0749,0.0746,0.0764,0.0774,0.0779,0.0717,0.0717,0.0716,0.0716,0,0,0.0485,0.0525,0.0527,0.0548,0.0583,0.0592,0.0624,0.0654,0.0681,0.0705,0.0739,0.0757,0.0769,0.0775,0.0779,0.0796,0.0829,0.0794,0.0793,0.081,0.0856,0.0816,0.0817,0.082,0.0821,0.0822,0.0853,0,0.0486,0.0511,0.0535,0.0565,0.0581,0.0615,0.0643,0.0675,0.0704,0.0737,0.0755,0.0782,0.078,0.0799,0.0814,0.0825,0.0842,0.0822,0.0832,0.0833,0.0799,0.0822,0.0824,0.0857,0.0858,0.0859,0.0859,0,0.048,0.05,0.0529,0.0578,0.0589,0.0614,0.0665,0.0692,0.074,0.0767,0.0798,0.0813,0.0848,0.084,0.0871,0.0861,0.0868,0.0873,0.0874,0.0834,0.0802,0.0834,0.0867,0.0867,0.0866,0.0866,0.0865,0,0.045,0.0496,0.0519,0.0534,0.059,0.0618,0.0651,0.0703,0.0735,0.0788,0.0819,0.085,0.0878,0.0888,0.0905,0.0895,0.0937,0.0913,0.0883,0.088,0.0895,0.089,0.0937,0.0937,0.0937,0.0937,0.0937,0,0.0436,0.0455,0.051,0.0521,0.056,0.0606,0.0652,0.0693,0.0756,0.0789,0.0831,0.086,0.0896,0.092,0.0921,0.092,0.0945,0.0899,0.0888,0.0904,0.09,0.0898,0.0893,0.0938,0.0938,0.0938,0.0937,0,0.0397,0.0434,0.0462,0.0523,0.0548,0.0573,0.0655,0.0685,0.075,0.0798,0.082,0.0885,0.0916,0.094,0.0967,0.094,0.094,0.0932,0.0962,0.095,0.0875,0.0871,0.0899,0.0898,0.0897,0.0897,0.0896,0,0.0379,0.0387,0.0449,0.0475,0.0507,0.0557,0.0595,0.0674,0.0703,0.0798,0.0811,0.088,0.0909,0.0912,0.0942,0.0946,0.0934,0.0931,0.0895,0.0886,0.0873,0.087,0.0867,0.0895,0.0894,0.0894,0.0894,0,0.034,0.0363,0.0389,0.0437,0.0482,0.0518,0.0574,0.0597,0.0679,0.0748,0.0788,0.082,0.086,0.0882,0.0903,0.0897,0.0929,0.0921,0.0923,0.0889,0.0881,0.0867,0.0866,0.0891,0.0891,0.0891,0.0892,0,0.0308,0.0315,0.0354,0.0396,0.0443,0.0464,0.0502,0.0546,0.0591,0.0697,0.0708,0.0778,0.0845,0.0857,0.0867,0.0872,0.0857,0.0824,0.083,0.0834,0.08,0.0779,0.0758,0,0,0,0,0,0.0276,0.0284,0.0314,0.0352,0.0395,0.0424,0.0482,0.052,0.06,0.061,0.0662,0.0694,0.074,0.0777,0.0769,0.0837,0.0854,0.0826,0.0818,0.0873,0.0877,0.0843,0,0,0,0,0,0,0.0254,0.0278,0.0294,0.0308,0.0329,0.0365,0.04,0.0456,0.0463,0.0551,0.0574,0.0652,0.0697,0.0733,0.0755,0.0767,0.0749,0.0877,0.0875,0.0871,0.0874,0.0877,0.0844,0,0,0,0,0]},{"header":{"parameterUnit":"m.s-1","parameterCategory":2,"la1":30.2991,"la2":30.254,"lo1":-89.0895,"lo2":-89.0444,"dy":0.0017,"dx":0.0017,"nx":28,"ny":28,"refTime":"2026-02-09T03:00:00:Z","depth":"4","parameterNumber":3,"parameterNumberName":"V-component_of_CURRENTS"},"data":[0,0,0,0,0,0,0,0,0,0,0,0,0,0,0,0,0,0,0,0,0,0,0,0,0,0,0,0,0,0,0,0,0,0,0,0,0,0,0,0,0,0,0,0,0,0,0,0,0,0,0,0,0,0,0,0,0,0,-0.0205,-0.0205,0,-0.0222,-0.0222,-0.0222,-0.0233,-0.0234,-0.0234,-0.0234,-0.0246,-0.0246,-0.0247,0,0,0,0,0,0,0,0,0,0,0,0,0,-0.0205,-0.0205,-0.0205,-0.0205,-0.0205,-0.0222,-0.0222,-0.0222,-0.0233,-0.0234,-0.0234,-0.0234,-0.0246,-0.0246,-0.0247,0,0,0,0,0,0,0,0,0,0,0,0,0,-0.0212,-0.0205,-0.0205,-0.0213,-0.0214,-0.0222,-0.0222,-0.0222,-0.0233,-0.0234,-0.0234,-0.0234,-0.0246,-0.0246,-0.0247,-0.0248,0,0,-0.0248,-0.0248,0,0,0,0,0,0,0,0,-0.0212,-0.0212,-0.0211,-0.0212,-0.0213,-0.0225,-0.0227,-0.023,-0.0233,-0.0226,-0.0234,-0.0234,-0.0239,-0.024,-0.0243,-0.0248,-0.0249,-0.0248,-0.0248,-0.0248,-0.0249,0,0,0,0,0,0,0,-0.0211,-0.0212,-0.0212,-0.0212,-0.0213,-0.0223,-0.0224,-0.0228,-0.0232,-0.0227,-0.0228,-0.0229,-0.0239,-0.0243,-0.0243,-0.0249,-0.0248,-0.0248,-0.0249,-0.0249,-0.0302,-0.0303,0,0,0,0,0,0,-0.0207,-0.0211,-0.0211,-0.0212,-0.0212,-0.0223,-0.0224,-0.0222,-0.0232,-0.0234,-0.0229,-0.0229,-0.0242,-0.0243,-0.0244,-0.0248,-0.0248,-0.0249,-0.0249,-0.0301,-0.0302,-0.0303,0,0,0,0,0,0,-0.0207,-0.0207,-0.0211,-0.0212,-0.0213,-0.0223,-0.022,-0.0222,-0.023,-0.0233,-0.0235,-0.0236,-0.0242,-0.0243,-0.0267,-0.0249,-0.0249,-0.0249,-0.0299,-0.0301,-0.0303,-0.0255,0,0,0,0,0,0,-0.0207,-0.0207,-0.0207,-0.0212,-0.0213,-0.0212,-0.022,-0.0222,-0.023,-0.0232,-0.024,-0.0241,-0.0242,-0.0267,-0.0268,-0.0249,-0.025,-0.0298,-0.03,-0.0302,-0.0255,-0.0255,-0.0255,0,0,0,0,0,-0.0207,-0.0201,-0.0207,-0.0207,-0.0212,-0.0212,-0.0213,-0.0221,-0.0231,-0.023,-0.0254,-0.0241,-0.0281,-0.0268,-0.0269,-0.025,-0.0297,-0.0299,-0.0302,-0.0256,-0.0255,-0.0255,0,0,0,0,0,0,-0.0207,-0.0202,-0.0209,-0.0204,-0.0208,-0.0214,-0.0216,-0.0224,-0.0241,-0.0249,-0.0256,-0.0259,-0.0275,-0.0282,-0.0268,-0.0279,-0.0286,-0.0289,-0.0251,-0.0251,-0.0251,-0.0247,-0.025,0,0,0,0,0,-0.0206,-0.0199,-0.0202,-0.02,-0.0201,-0.0212,-0.0215,-0.0222,-0.0236,-0.0243,-0.0253,-0.0271,-0.0286,-0.0284,-0.0303,-0.0302,-0.0312,-0.0296,-0.0295,-0.0295,-0.0297,-0.0308,-0.0308,-0.0312,-0.0312,-0.0312,0,0,-0.0207,-0.0204,-0.0201,-0.02,-0.0205,-0.0201,-0.0214,-0.0219,-0.0219,-0.0242,-0.0252,-0.0275,-0.0293,-0.0299,-0.0304,-0.0297,-0.03,-0.0298,-0.0297,-0.03,-0.0311,-0.031,-0.0309,-0.0314,-0.0313,-0.0313,0,0,-0.0197,-0.0202,-0.019,-0.019,-0.0196,-0.02,-0.0202,-0.0213,-0.022,-0.0235,-0.0257,-0.0276,-0.0291,-0.0296,-0.0301,-0.0315,-0.0309,-0.0319,-0.0295,-0.0305,-0.0304,-0.0303,-0.0306,-0.0306,-0.0305,-0.0305,-0.0305,0,-0.0199,-0.0184,-0.0189,-0.0179,-0.0178,-0.0198,-0.0189,-0.0198,-0.0217,-0.0225,-0.0236,-0.0276,-0.0287,-0.029,-0.0296,-0.0308,-0.0317,-0.0283,-0.0301,-0.03,-0.03,-0.0303,-0.0304,-0.0303,-0.0303,-0.0303,-0.0303,0,-0.0176,-0.017,-0.0165,-0.0155,-0.0156,-0.0154,-0.0163,-0.0173,-0.0189,-0.0199,-0.0221,-0.0247,-0.0266,-0.0269,-0.0283,-0.0286,-0.0294,-0.0305,-0.029,-0.0296,-0.03,-0.0301,-0.03,-0.0301,-0.0301,-0.0302,0,0,-0.0163,-0.0149,-0.0148,-0.014,-0.0144,-0.014,-0.0144,-0.0148,-0.0147,-0.0175,-0.0174,-0.0206,-0.0227,-0.0238,-0.0254,-0.0258,-0.026,-0.0277,-0.0278,-0.026,-0.0279,-0.0271,-0.0271,-0.027,-0.0271,-0.0271,-0.0278,0,-0.0145,-0.0119,-0.0118,-0.0101,-0.009,-0.0106,-0.0101,-0.0112,-0.0127,-0.0134,-0.0164,-0.0177,-0.021,-0.0215,-0.0229,-0.0259,-0.0264,-0.0257,-0.0295,-0.0296,-0.0271,-0.0273,-0.0272,-0.0278,-0.0279,-0.0279,-0.0279,0,-0.012,-0.0105,-0.0082,-0.0068,-0.0064,-0.0059,-0.0057,-0.0055,-0.0074,-0.0086,-0.011,-0.0138,-0.0159,-0.0185,-0.023,-0.0225,-0.0254,-0.0274,-0.0275,-0.0285,-0.029,-0.0278,-0.0281,-0.0281,-0.0281,-0.0281,-0.0281,0,-0.0101,-0.008,-0.0061,-0.0056,-0.0043,-0.004,-0.0036,-0.0046,-0.0039,-0.0056,-0.0055,-0.0096,-0.0109,-0.0157,-0.0211,-0.022,-0.0255,-0.0269,-0.0288,-0.0287,-0.0311,-0.0312,-0.0301,-0.0301,-0.0301,-0.0301,-0.0301,0,-0.0078,-0.006,-0.0051,-0.0038,-0.0013,-0.0016,0.0005,0.0001,-0.0001,0.0013,-0.003,-0.0028,-0.0105,-0.0138,-0.0193,-0.0241,-0.0243,-0.0286,-0.029,-0.0292,-0.0291,-0.0311,-0.0312,-0.0301,-0.0301,-0.0301,-0.0301,0,-0.0052,-0.0051,-0.0023,-0.0008,-0.0002,0.0017,0.0035,0.0051,0.0045,0.0063,0.006,0.0022,-0.0022,-0.0092,-0.016,-0.0207,-0.0257,-0.0274,-0.0261,-0.0265,-0.0287,-0.0286,-0.0294,-0.0294,-0.0294,-0.0294,-0.0294,0,-0.003,-0.0016,0.0005,0.0018,0.0026,0.005,0.0068,0.0071,0.009,0.0097,0.0109,0.0072,0.0039,-0.0042,-0.0128,-0.0223,-0.0244,-0.0267,-0.0293,-0.0284,-0.0287,-0.0286,-0.0285,-0.0293,-0.0293,-0.0293,-0.0293,0,0.0015,0.0015,0.0035,0.0056,0.0073,0.0106,0.0129,0.0146,0.0157,0.0154,0.0158,0.0107,0.0061,-0.0028,-0.0101,-0.0174,-0.0251,-0.0265,-0.0267,-0.0292,-0.0283,-0.0286,-0.0285,-0.0293,-0.0293,-0.0293,-0.0293,0,0.0049,0.0064,0.0074,0.0093,0.0118,0.0147,0.0161,0.0182,0.0197,0.02,0.0202,0.0143,0.0103,-0.0002,-0.0069,-0.014,-0.0168,-0.0195,-0.0201,-0.0203,-0.0183,-0.0158,-0.0131,0,0,0,0,0,0.0077,0.0081,0.0107,0.0122,0.015,0.0157,0.0196,0.0205,0.0216,0.0228,0.0215,0.0171,0.0071,0.0026,-0.0044,-0.008,-0.0189,-0.0165,-0.0225,-0.0289,-0.029,-0.0283,0,0,0,0,0,0,0.009,0.0109,0.011,0.0142,0.0151,0.0183,0.0204,0.0214,0.0221,0.0222,0.0172,0.0146,0.0048,0.0106,-0.005,-0.0072,-0.012,-0.0214,-0.0216,-0.0289,-0.029,-0.029,-0.0283,0,0,0,0,0]}]]